CAPE
0 0 0 0 0 0 0 0 0 0 0 0 0 0 0 0 0 0 0 0 1 10 24 38 40 29 20 19 23 19 28 48 52 53 50 28 31 21 4 0 6 34 459
0 0 0 0 0 0 0 0 0 0 0 0 0 0 0 0 0 0 0 0 1 5 10 10 12 18 22 21 13 8 12 27 44 47 45 30 20 23 34 13 2 0 18
0 0 0 0 0 0 0 0 0 0 0 0 0 0 0 0 0 0 0 0 0 1 5 6 7 13 16 18 13 13 12 21 38 46 44 55 45 41 29 35 17 27 0
0 0 0 0 0 0 0 0 0 0 0 0 0 0 0 0 0 0 0 0 0 0 0 0 1 2 6 12 22 23 17 32 37 41 48 57 58 43 44 45 38 16 34
0 0 0 0 0 0 0 0 0 0 0 0 0 0 0 0 0 0 0 0 0 0 0 0 0 2 7 13 15 32 58 53 39 45 54 58 53 49 34 35 41 28 10
0 0 0 0 0 0 0 0 0 0 0 0 0 0 0 0 0 0 0 0 0 0 0 0 0 0 9 10 16 46 58 55 67 44 57 55 56 53 40 40 29 27 21
0 0 0 0 0 0 0 0 0 0 0 0 0 0 0 0 0 0 0 0 0 0 0 0 0 0 0 9 21 40 60 62 68 79 78 75 61 62 54 50 40 17 11
0 0 0 0 0 0 0 0 0 0 0 0 0 0 0 0 0 0 0 0 0 0 0 0 0 0 0 0 14 36 32 41 49 63 68 79 76 75 77 63 46 35 13
0 0 0 0 0 0 0 0 0 0 0 0 0 0 0 0 0 0 0 0 0 0 0 0 0 0 0 0 19 19 22 18 32 59 65 70 82 94 89 72 67 44 26
0 0 0 0 0 0 0 0 0 0 0 0 0 0 0 0 0 0 0 0 0 0 0 0 0 0 0 0 4 36 25 16 14 38 52 56 59 64 71 67 54 49 48
0 0 0 0 0 0 0 0 0 0 0 0 0 0 0 0 0 0 0 0 0 0 0 0 0 0 0 0 1 15 23 14 16 27 31 45 51 55 51 47 58 67 47
0 0 0 0 0 0 0 0 0 0 0 0 0 0 0 0 0 0 0 0 0 0 0 0 0 0 0 0 0 11 25 23 14 29 23 38 46 44 47 53 54 56 58
0 0 0 0 0 0 0 0 0 0 0 0 0 0 0 0 0 0 0 0 0 0 0 0 0 0 0 0 0 3 2 37 3 22 13 19 31 36 42 46 54 57 60
0 0 0 0 0 0 0 0 0 0 0 0 0 0 0 0 0 0 0 0 0 0 0 0 0 0 0 0 0 0 0 18 0 12 16 22 27 27 21 20 31 48 50
0 0 0 0 0 0 0 0 0 0 0 0 0 0 0 0 0 0 0 0 0 0 0 0 0 0 0 0 0 0 0 5 0 3 8 22 15 13 12 21 19 46 39
0 0 0 0 0 0 0 0 0 0 0 0 0 0 0 0 0 0 0 0 0 0 0 0 0 0 0 0 0 0 0 0 0 4 5 8 17 12 8 10 16 23 24
0 0 0 0 0 0 0 0 0 0 0 0 0 0 0 0 0 0 0 0 0 0 0 0 0 0 0 0 0 0 0 0 0 2 5 4 5 9 8 10 9 14 27
0 0 0 0 0 0 0 0 0 0 0 0 0 0 0 0 0 0 0 0 0 0 0 0 0 0 0 0 0 0 0 0 0 0 0 7 11 12 9 7 10 10 10
0 0 0 0 0 0 0 0 0 0 0 0 0 0 0 0 0 0 0 0 0 0 0 0 0 0 0 0 0 0 0 0 0 0 0 0 11 12 4 4 7 10 10
0 0 0 0 0 0 0 0 0 0 0 0 0 0 0 0 0 0 0 0 0 0 0 0 0 0 0 0 0 0 0 0 0 0 0 0 0 1 0 3 6 9 11
0 0 0 0 0 0 0 0 0 0 0 0 0 0 0 0 0 0 0 0 0 0 0 0 0 0 0 0 0 0 0 0 0 0 0 0 0 0 0 0 6 7 8
0 0 0 0 0 0 0 0 0 0 0 0 0 0 0 1 0 0 0 0 0 0 0 0 0 0 0 0 0 0 0 0 0 0 0 0 0 0 0 3 6 8 9
0 0 0 0 0 0 1 0 0 0 0 0 0 0 0 0 0 0 0 0 2 0 0 0 0 0 0 0 0 0 0 0 0 0 0 0 0 0 0 0 2 5 7
0 0 0 0 0 0 2 1 0 0 0 0 0 0 0 0 0 0 0 0 0 0 0 0 0 0 0 0 0 0 0 0 0 0 0 0 0 0 0 0 0 2 4
0 0 0 0 0 0 4 5 0 0 0 0 0 0 0 0 0 0 0 0 0 0 0 0 0 0 0 0 0 0 0 0 0 0 0 0 0 0 0 0 0 0 1
1 1 1 0 0 0 6 5 0 0 0 0 0 0 0 0 0 0 0 0 0 0 0 0 0 0 0 0 0 0 0 0 0 0 0 0 0 0 0 0 0 0 1
CIN
0 0 0 0 0 0 0 0 0 0 0 0 0 0 0 0 0 0 0 0 0 0 0 0 0 0 0 0 0 0 0 0 0 0 0 0 0 0 0 0 0 -45 -1
0 0 0 0 0 0 0 0 0 0 0 0 0 0 0 0 0 0 0 0 0 0 0 0 0 0 0 0 0 0 0 0 0 0 0 0 0 0 0 0 -3 0 -8
0 0 0 0 0 0 0 0 0 0 0 0 0 0 0 0 0 0 0 0 0 0 0 0 0 0 0 0 0 0 0 0 0 0 0 0 0 0 0 0 0 -3 0
0 0 0 0 0 0 0 0 0 0 0 0 0 0 0 0 0 0 0 0 0 0 0 0 0 0 0 0 0 0 0 0 0 0 0 0 0 -2 -1 0 0 -1 0
0 0 0 0 0 0 0 0 0 0 0 0 0 0 0 0 0 0 0 0 0 0 0 0 0 0 0 0 0 0 0 0 0 0 0 0 0 0 -2 0 0 -2 -3
0 0 0 0 0 0 0 0 0 0 0 0 0 0 0 0 0 0 0 0 0 0 0 0 0 0 0 0 0 0 0 0 0 0 0 0 0 0 -3 -2 -3 -4 -1
0 0 0 0 0 0 0 0 0 0 0 0 0 0 0 0 0 0 0 0 0 0 0 0 0 0 0 0 0 0 0 0 0 0 0 0 0 0 0 -1 -7 -18 -16
0 0 0 0 0 0 0 0 0 0 0 0 0 0 0 0 0 0 0 0 0 0 0 0 0 0 0 0 0 0 0 0 0 0 0 0 0 0 0 0 -4 -11 0
0 0 0 0 0 0 0 0 0 0 0 0 0 0 0 0 0 0 0 0 0 0 0 0 0 0 0 0 0 0 0 0 0 -3 0 0 0 0 0 0 0 -6 -23
0 0 0 0 0 0 0 0 0 0 0 0 0 0 0 0 0 0 0 0 0 0 0 0 0 0 0 0 0 0 0 0 0 0 0 0 0 -2 -1 -1 -4 -8 -3
0 0 0 0 0 0 0 0 0 0 0 0 0 0 0 0 0 0 0 0 0 0 0 0 0 0 0 0 0 0 0 0 0 0 0 0 0 0 0 -2 -2 0 0
0 0 0 0 0 0 0 0 0 0 0 0 0 0 0 0 0 0 0 0 0 0 0 0 0 0 0 0 0 0 0 0 0 0 0 0 0 0 0 0 0 0 -1
0 0 0 0 0 0 0 0 0 0 0 0 0 0 0 0 0 0 0 0 0 0 0 0 0 0 0 0 0 0 0 0 -3 0 0 0 0 0 0 0 0 0 0
0 0 0 0 0 0 0 0 0 0 0 0 0 0 0 0 0 0 0 0 0 0 0 0 0 0 0 0 0 0 0 0 0 0 0 0 0 0 0 0 0 0 0
0 0 0 0 0 0 0 0 0 0 0 0 0 0 0 0 0 0 0 0 0 0 0 0 0 0 0 0 0 0 0 0 0 0 0 0 0 0 0 0 0 0 0
0 0 0 0 0 0 0 0 0 0 0 0 0 0 0 0 0 0 0 0 0 0 0 0 0 0 0 0 0 0 0 0 0 0 0 0 0 0 0 0 0 0 0
0 0 0 0 0 0 0 0 0 0 0 0 0 0 0 0 0 0 0 0 0 0 0 0 0 0 0 0 0 0 0 0 0 0 0 0 0 0 0 0 0 0 0
0 0 0 0 0 0 0 0 0 0 0 0 0 0 0 0 0 0 0 0 0 0 0 0 0 0 0 0 0 0 0 0 0 0 0 0 0 0 0 0 0 0 0
0 0 0 0 0 0 0 0 0 0 0 0 0 0 0 0 0 0 0 0 0 0 0 0 0 0 0 0 0 0 0 0 0 0 0 0 0 0 0 0 0 0 0
0 0 0 0 0 0 0 0 0 0 0 0 0 0 0 0 0 0 0 0 0 0 0 0 0 0 0 0 0 0 0 0 0 0 0 0 0 0 0 0 0 0 0
0 0 0 0 0 0 0 0 0 0 0 0 0 0 0 0 0 0 0 0 0 0 0 0 0 0 0 0 0 0 0 0 0 0 0 0 0 0 0 0 0 0 0
0 0 0 0 0 0 0 0 0 0 0 0 0 0 0 -1 -1 0 0 0 0 0 0 0 0 0 0 0 0 0 0 0 0 0 0 0 0 0 0 0 0 0 0
0 0 0 0 0 0 0 0 0 0 0 0 0 0 0 0 0 0 0 0 0 0 0 0 0 0 0 0 0 0 0 0 0 0 0 0 0 0 0 0 0 0 0
0 0 0 0 0 0 0 0 0 0 0 0 0 0 0 0 0 0 0 0 0 0 0 0 0 0 0 0 0 0 0 0 0 0 0 0 0 0 0 0 0 0 0
0 0 0 0 0 0 0 0 0 0 0 0 0 0 0 0 0 0 0 0 0 0 0 0 0 0 0 0 0 0 0 0 0 0 0 0 0 0 0 0 0 0 0
0 0 0 0 0 0 0 0 0 0 0 0 0 0 0 0 0 0 0 0 0 0 0 0 0 0 0 0 0 0 0 0 0 0 0 0 0 0 0 0 0 0 0
Wind_Speed
5 4 4 4 4 4 5 4 4 4 6 7 6 6 8 8 8 5 4 20 19 18 17 19 18 17 16 15 17 18 18 20 20 21 21 20 20 17 14 15 13 13 13
5 5 4 4 4 5 3 3 5 6 5 5 5 6 7 7 8 8 6 7 19 19 18 18 17 17 18 17 18 17 16 18 20 21 21 21 21 22 14 12 13 13 14
6 6 5 4 4 4 4 4 7 6 5 4 6 6 6 8 8 8 7 6 7 19 20 19 18 19 19 18 18 18 17 18 19 20 21 23 22 21 20 15 12 14 13
6 5 5 4 4 4 4 5 4 4 4 4 4 5 5 6 7 8 7 7 6 6 12 19 19 20 19 18 19 19 17 19 19 20 20 20 21 21 21 19 15 15 12
6 6 5 4 5 4 4 4 3 3 3 3 6 5 5 6 6 7 8 8 9 8 7 16 19 20 19 19 18 18 21 22 21 20 20 20 20 20 21 20 17 16 13
7 7 5 4 4 4 4 4 4 4 3 3 7 7 5 4 5 6 6 6 6 8 8 9 8 9 19 18 19 20 21 22 22 21 21 21 21 20 19 19 17 15 14
7 6 5 5 4 4 4 5 4 5 4 2 3 3 3 4 7 5 5 5 6 6 8 8 7 6 7 18 20 21 21 21 21 20 21 21 21 21 20 19 17 16 17
6 6 6 5 5 4 5 4 3 3 3 3 3 2 3 1 3 5 4 5 7 4 7 10 10 10 9 7 13 21 22 22 20 21 22 21 21 20 20 19 19 17 14
6 6 6 5 4 3 4 3 3 4 4 3 4 3 3 3 2 1 3 4 3 5 5 8 10 10 10 9 10 13 21 22 22 22 21 22 22 22 20 21 20 19 18
6 7 7 6 5 4 5 3 2 3 3 4 2 4 5 3 3 2 2 1 3 6 6 6 8 9 9 8 14 16 18 20 22 22 23 23 22 23 23 23 24 24 20
6 6 6 5 5 4 5 5 4 5 2 3 2 2 2 2 3 2 2 1 2 3 5 6 6 6 9 9 8 11 18 21 20 20 22 22 22 23 24 25 24 24 23
4 5 6 6 5 5 5 5 5 5 4 4 3 3 2 3 1 2 2 1 1 0 3 5 6 6 7 7 11 16 17 19 20 19 20 23 23 24 25 25 25 25 25
4 6 6 6 3 5 5 6 6 6 3 3 3 3 5 2 1 2 2 1 0 0 1 3 5 6 7 7 9 16 16 18 18 20 20 20 23 24 25 25 25 25 25
7 7 6 6 6 7 5 6 5 5 4 3 5 6 4 3 3 1 2 2 1 0 3 3 2 6 7 7 10 17 10 17 18 18 20 19 22 23 23 24 25 25 26
9 9 8 8 7 7 7 7 5 5 4 3 5 5 4 4 3 3 3 1 1 1 1 3 4 6 7 7 11 9 10 16 19 17 18 20 19 22 22 24 24 25 25
11 12 9 9 9 7 6 8 6 5 5 3 4 5 5 4 4 4 3 3 2 1 2 2 3 4 7 8 11 10 9 11 20 17 16 18 18 20 22 22 24 25 25
12 11 11 11 9 8 7 7 6 6 6 6 4 5 6 5 5 4 3 3 4 2 1 2 3 4 7 10 10 9 8 7 8 18 17 16 16 19 22 23 23 24 25
12 12 13 11 9 8 7 8 7 6 7 6 5 6 5 5 6 5 4 5 5 4 1 2 3 5 4 10 9 8 7 6 7 15 16 17 17 19 22 23 24 24 24
12 11 12 12 11 9 8 6 6 7 5 6 5 7 5 6 5 3 4 5 4 5 5 3 3 3 2 7 7 6 6 7 6 18 14 17 16 18 21 23 24 24 25
13 12 10 11 11 10 10 9 9 8 7 7 8 7 6 7 6 5 5 4 3 5 5 5 3 4 3 5 5 8 7 6 5 11 13 14 17 17 20 23 23 24 25
13 13 13 12 12 10 8 10 10 9 8 8 7 7 6 8 11 7 4 3 3 3 4 5 5 4 5 6 6 4 6 5 1 9 8 5 9 7 10 16 19 25 26
14 13 11 13 13 9 20 19 12 8 7 7 6 4 1 10 8 8 8 7 5 4 3 2 1 2 4 2 4 3 4 5 5 6 9 5 6 7 6 9 24 26 26
14 13 11 13 12 10 21 21 19 7 8 7 6 5 4 3 7 5 7 7 6 9 4 5 3 1 1 2 2 5 4 3 2 4 6 5 4 7 5 8 26 25 25
13 12 13 13 12 10 22 21 19 9 8 8 7 6 7 7 6 7 6 5 5 4 3 3 4 2 3 1 1 2 0 4 1 1 4 3 4 6 5 5 21 25 25
12 11 11 13 13 12 22 22 15 10 9 8 7 5 6 6 9 10 5 6 5 3 6 9 9 11 11 11 9 2 4 4 2 2 3 2 3 5 3 4 7 25 23
12 10 10 9 15 13 23 22 15 7 9 7 6 5 10 6 10 9 5 5 5 0 3 4 5 5 7 8 10 5 1 3 2 2 2 5 4 4 4 2 4 7 10
Wind_Direction
115 109 100 93 83 79 65 62 67 48 41 32 30 38 48 47 45 41 28 49 46 44 41 36 32 23 15 15 13 8 3 2 1 0 2 359 354 322 298 295 298 309 263
119 109 104 84 70 65 84 90 66 53 44 35 40 42 50 48 46 43 38 31 48 48 47 40 30 24 18 17 9 356 350 357 354 350 354 356 355 351 329 291 292 290 312
125 124 111 94 85 81 78 70 59 55 56 52 58 51 46 40 41 41 36 36 36 45 47 41 37 27 19 11 0 354 350 350 348 349 356 353 354 352 348 338 315 298 286
115 112 107 98 103 91 82 70 76 68 69 66 74 51 47 47 49 41 43 39 43 44 36 41 36 29 23 16 7 359 356 355 354 349 352 349 350 354 352 348 347 353 319
116 111 107 112 113 96 78 83 71 96 93 97 89 71 53 51 42 47 44 41 44 48 41 36 38 32 25 20 14 11 13 3 355 354 353 350 352 353 349 348 351 345 340
123 112 101 101 96 97 93 84 88 64 105 116 104 82 63 52 52 47 43 43 46 51 46 40 31 21 28 26 20 19 16 6 360 356 357 359 356 352 352 343 348 343 335
109 111 112 111 102 105 125 138 102 84 56 8 104 64 52 49 53 43 42 44 39 40 46 37 30 15 12 19 15 16 16 6 3 6 5 5 359 357 349 348 348 344 346
120 126 121 119 121 112 113 101 129 130 96 22 126 95 135 22 35 37 36 58 42 16 39 44 31 18 12 11 22 19 19 9 4 10 10 6 4 0 354 354 350 346 340
121 120 111 125 124 116 107 94 113 135 133 47 50 140 117 182 152 347 34 51 58 54 50 47 30 19 10 8 11 26 25 14 12 13 13 11 6 4 2 1 356 355 359
119 127 129 135 128 124 107 102 85 95 115 138 100 50 54 120 157 123 20 348 55 57 62 52 35 19 12 2 11 11 23 18 13 14 13 12 9 5 5 7 5 2 356
126 122 123 130 127 112 108 114 90 75 65 113 130 131 81 74 70 113 163 353 45 54 70 63 47 21 16 6 352 4 25 20 8 8 10 9 11 9 9 8 6 4 4
127 124 131 131 129 122 125 125 99 83 80 83 89 86 128 99 128 122 103 102 250 45 79 61 45 24 18 5 357 11 11 16 7 6 9 10 10 11 9 8 7 8 7
154 157 143 131 133 125 128 115 105 101 91 94 95 98 72 83 126 105 96 129 83 308 90 76 48 31 17 1 352 8 2 3 15 4 4 15 11 11 10 7 7 8 7
151 146 139 124 132 119 116 101 101 90 94 97 106 80 91 68 61 81 123 128 132 328 58 356 48 29 14 4 354 9 351 6 15 6 9 15 12 9 9 9 7 7 6
146 142 133 133 123 114 122 113 99 103 101 112 94 97 102 85 76 72 72 81 160 133 36 35 349 18 9 3 3 6 347 18 16 9 15 7 14 9 10 10 8 7 6
140 134 131 132 117 128 122 110 107 114 120 106 93 109 96 94 89 80 77 74 46 113 132 40 37 7 11 6 6 1 350 20 17 12 9 1 14 9 9 9 10 8 7
139 139 140 126 134 133 126 113 116 120 124 102 112 110 103 104 94 93 83 67 59 36 115 95 30 6 24 12 3 358 355 14 8 13 9 6 10 12 8 5 7 10 6
143 144 132 134 136 133 129 127 139 139 123 130 124 115 106 104 88 89 89 77 70 40 65 82 15 1 27 13 358 359 3 7 13 10 13 11 7 10 11 5 3 6 8
139 139 138 140 138 138 125 113 133 124 118 124 118 103 100 94 83 78 78 82 68 63 57 65 42 4 350 14 6 12 23 14 19 14 10 16 8 10 10 5 5 6 6
142 137 139 132 136 133 133 141 134 127 136 122 122 113 116 107 112 102 89 80 63 76 70 64 32 16 8 3 14 11 12 12 19 13 4 8 9 12 11 5 5 6 6
145 140 145 138 140 137 145 144 145 148 144 135 131 138 133 132 120 122 112 97 87 69 67 61 55 25 17 10 15 339 356 346 32 23 357 345 3 357 6 355 5 6 6
139 144 152 149 142 150 159 155 148 142 131 125 124 85 80 148 129 128 113 119 126 110 76 66 56 52 335 328 333 348 350 12 356 35 352 323 355 352 350 359 9 9 6
144 148 155 152 144 148 162 160 154 141 131 134 135 118 101 87 106 84 93 75 62 106 123 138 100 204 340 287 321 349 16 25 297 336 345 317 352 343 340 359 10 10 8
155 154 161 154 147 160 163 158 154 136 132 141 141 151 134 122 138 130 124 98 80 71 111 110 122 203 243 252 322 232 286 301 227 302 350 320 335 332 327 331 6 9 7
150 158 159 155 149 160 160 160 148 141 141 134 146 146 129 143 169 162 138 124 101 43 46 74 73 55 41 38 27 13 31 21 349 328 5 332 324 308 326 323 345 1 2
148 144 146 157 156 153 160 163 155 150 141 142 147 149 143 148 151 155 137 136 117 318 54 44 21 28 33 38 38 45 39 43 1 342 321 342 330 350 333 313 332 344 349